This is the latest recevied weather packets stored in our database for station/object G0TGD-10. If no packets are shown the sender has not sent any weather packets the latest 1 day(s).
| Time | Temp. | Humidity | Pressure | Rain* | Wind** | Luminosity | Snow |
|---|---|---|---|---|---|---|---|
| 1778044885 | 4.44° C | 70% | 1014.4 hPa | - | - | - | - |
| 1778043085 | 3.89° C | 71% | 1014.4 hPa | - | - | - | - |
| 1778042185 | 3.89° C | 70% | 1014.4 hPa | - | - | - | - |
| 1778041285 | 4.44° C | 70% | 1014.4 hPa | - | - | - | - |
| 1778040385 | 4.44° C | 70% | 1014.5 hPa | - | - | - | - |
| 1778039485 | 5° C | 70% | 1014.5 hPa | - | - | - | - |
| 1778038585 | 5.56° C | 69% | 1014.5 hPa | - | - | - | - |
| 1778037685 | 6.11° C | 69% | 1014.6 hPa | - | - | - | - |
| 1778036785 | 6.67° C | 68% | 1014.7 hPa | - | - | - | - |
| 1778035884 | 6.67° C | 68% | 1014.6 hPa | - | - | - | - |
| 1778034084 | 7.22° C | 68% | 1014.6 hPa | - | - | - | - |
| 1778032284 | 7.22° C | 68% | 1014.7 hPa | - | - | - | - |
| 1778031384 | 7.22° C | 68% | 1014.7 hPa | - | - | - | - |
| 1778030484 | 7.22° C | 67% | 1014.8 hPa | - | - | - | - |
| 1778029584 | 7.22° C | 67% | 1014.7 hPa | - | - | - | - |
| 1778028684 | 7.22° C | 67% | 1014.8 hPa | - | - | - | - |
| 1778027784 | 7.22° C | 67% | 1014.9 hPa | - | - | - | - |
| 1778026884 | 7.78° C | 67% | 1014.9 hPa | - | - | - | - |
| 1778018783 | 8.89° C | 66% | 1015.2 hPa | - | - | - | - |
| 1778017883 | 8.89° C | 66% | 1015.3 hPa | - | - | - | - |
| 1778016983 | 9.44° C | 66% | 1015.2 hPa | - | - | - | - |
* Rain since midnight (hover to see other rain measurements)
** Current wind speed in m/s (hover to see current wind gust speed)